Weather History for KGAD - October, 2014

Change the Weather History Date:

Friday, October 31, 2014

  Actual Average Record
Temperature  
Mean Temperature 48 °F -  
Max Temperature 60 °F 68 °F 85 °F (1935)
Min Temperature 37 °F 43 °F 28 °F (2011)
Degree Days  
Heating Degree Days 16    
Moisture  
Dew Point 37 °F    
Average Humidity 72    
Maximum Humidity 93    
Minimum Humidity 48    
Precipitation  
Precipitation 0.00 in - - ()
Sea Level Pressure  
Sea Level Pressure 30.01 in    
Wind  
Wind Speed 4 mph (NW)    
Max Wind Speed 28 mph    
Max Gust Speed 38 mph    
Visibility 10 miles    
Events      
Averages and records for this station are not official NWS values.
T = Trace of Precipitation, MM = Missing Value Source: NWS Daily Summary

Daily Weather History Graph

Daily Weather History Graph

Search for Another Location

Airport or City:

Trip Planner

Search our weather history database for the weather conditions in past years. The results will help you decide how hot, cold, wet, or windy it might be!

Date:

Astronomy

Oct. 31, 2014 Rise Set
Actual Time 7:02 AM CDT 5:52 PM CDT
Civil Twilight 6:37 AM CDT 6:18 PM CDT
Nautical Twilight 6:07 AM CDT 6:47 PM CDT
Astronomical Twilight 5:38 AM CDT 7:16 PM CDT
Moon 1:48 PM CDT (10/31) 12:10 AM CDT (10/31)
Length of Visible Light 11h 41m
Length of Day
10h 49m
First Quarter, 57% of the Moon is Illuminated
Oct 31
First Quarter
Nov 6
Full
Nov 14
Last Quarter
Nov 22
New
Nov 29
First Quarter

Hourly Weather History & Observations

Time (CDT) Temp. Windchill Dew Point Humidity Pressure Visibility Wind Dir Wind Speed Gust Speed Precip Events Conditions
12:15 AM 39.2 °F - 35.6 °F 87% 30.01 in 10.0 mi Calm Calm - N/A   Clear
12:35 AM 41.0 °F - 35.6 °F 81% 30.01 in 10.0 mi Calm Calm - N/A   Clear
12:55 AM 39.2 °F 35.9 °F 35.6 °F 87% 30.01 in 10.0 mi WSW 4.6 mph - N/A   Clear
1:15 AM 39.2 °F - 35.6 °F 87% 30.01 in 10.0 mi Calm Calm - N/A   Clear
1:35 AM 39.2 °F - 35.6 °F 87% 30.01 in 10.0 mi Calm Calm - N/A   Clear
1:55 AM 39.2 °F - 35.6 °F 87% 30.01 in 10.0 mi Calm Calm - N/A   Clear
2:15 AM 39.2 °F - 35.6 °F 87% 30.01 in 10.0 mi Calm Calm - N/A   Clear
2:35 AM 39.2 °F - 35.6 °F 87% 30.00 in 10.0 mi Calm Calm - N/A   Mostly Cloudy
2:55 AM 41.0 °F - 37.4 °F 87% 30.00 in 10.0 mi Calm Calm - N/A   Scattered Clouds
3:15 AM 42.8 °F - 37.4 °F 81% 29.99 in 10.0 mi Calm Calm - N/A   Clear
3:35 AM 42.8 °F 40.1 °F 37.4 °F 81% 29.99 in 10.0 mi West 4.6 mph - N/A   Clear
3:55 AM 42.8 °F - 37.4 °F 81% 29.99 in 10.0 mi Calm Calm - N/A   Partly Cloudy
4:15 AM 42.8 °F - 37.4 °F 81% 29.98 in 10.0 mi Calm Calm - N/A   Clear
4:35 AM 39.2 °F 37.0 °F 35.6 °F 87% 29.98 in 10.0 mi West 3.5 mph - N/A   Clear
4:55 AM 41.0 °F - 37.4 °F 87% 29.99 in 10.0 mi Calm Calm - N/A   Clear
5:15 AM 39.2 °F - 35.6 °F 87% 29.98 in 10.0 mi Calm Calm - N/A   Clear
5:35 AM 39.2 °F - 35.6 °F 87% 29.98 in 10.0 mi Calm Calm - N/A   Clear
5:55 AM 39.2 °F 35.9 °F 35.6 °F 87% 29.99 in 10.0 mi West 4.6 mph - N/A   Clear
6:15 AM 37.4 °F - 35.6 °F 93% 29.99 in 10.0 mi Calm Calm - N/A   Partly Cloudy
6:35 AM 37.4 °F - 33.8 °F 87% 29.99 in 10.0 mi Calm Calm - N/A   Clear
6:55 AM 37.4 °F 34.9 °F 35.6 °F 93% 30.00 in 10.0 mi West 3.5 mph - N/A   Clear
7:15 AM 37.4 °F - 33.8 °F 87% 30.00 in 10.0 mi Calm Calm - N/A   Clear
7:35 AM 41.0 °F - 37.4 °F 87% 29.99 in 10.0 mi Calm Calm - N/A   Scattered Clouds
7:55 AM 42.8 °F 39.3 °F 39.2 °F 87% 29.98 in 10.0 mi NE 5.8 mph - N/A   Mostly Cloudy
8:15 AM 44.6 °F - 39.2 °F 81% 29.99 in 10.0 mi Calm Calm - N/A   Overcast
8:35 AM 44.6 °F - 39.2 °F 81% 30.00 in 10.0 mi Calm Calm - N/A   Overcast
8:55 AM 44.6 °F - 41.0 °F 87% 30.00 in 10.0 mi Calm Calm - N/A   Overcast
9:15 AM 46.4 °F - 41.0 °F 81% 30.00 in 10.0 mi Calm Calm - N/A   Overcast
9:35 AM 46.4 °F 45.2 °F 42.8 °F 87% 30.00 in 10.0 mi WSW 3.5 mph - N/A   Overcast
9:55 AM 46.4 °F 43.5 °F 42.8 °F 87% 30.00 in 10.0 mi West 5.8 mph - N/A   Overcast
10:15 AM 48.2 °F - 42.8 °F 82% 30.00 in 10.0 mi NW 3.5 mph - N/A   Overcast
10:35 AM 48.2 °F - 44.6 °F 87% 30.00 in 10.0 mi Calm Calm - N/A   Overcast
10:55 AM 51.8 °F - 42.8 °F 71% 30.00 in 10.0 mi Calm Calm - N/A   Overcast
11:15 AM 53.6 °F - 44.6 °F 72% 30.00 in 10.0 mi Calm Calm - N/A   Overcast
11:35 AM 53.6 °F - 42.8 °F 67% 30.00 in 10.0 mi Calm Calm - N/A   Overcast
11:55 AM 55.4 °F - 42.8 °F 63% 29.98 in 10.0 mi Calm Calm - N/A   Overcast
12:15 PM 55.4 °F - 44.6 °F 67% 29.98 in 10.0 mi Calm Calm - N/A   Overcast
12:35 PM 57.2 °F - 44.6 °F 63% 29.97 in 10.0 mi NNW 4.6 mph - N/A   Mostly Cloudy
12:55 PM 59.0 °F - 42.8 °F 55% 29.97 in 10.0 mi NNW 6.9 mph - N/A   Mostly Cloudy
1:15 PM 59.0 °F - 41.0 °F 51% 29.96 in 10.0 mi NNW 8.1 mph - N/A   Overcast
1:35 PM 59.0 °F - 39.2 °F 48% 29.95 in 10.0 mi NNW 6.9 mph - N/A   Overcast
1:55 PM 59.0 °F - 39.2 °F 48% 29.95 in 10.0 mi NNW 6.9 mph - N/A   Mostly Cloudy
2:15 PM 60.8 °F - 41.0 °F 48% 29.94 in 10.0 mi NW 6.9 mph - N/A   Mostly Cloudy
2:35 PM 60.8 °F - 42.8 °F 52% 29.94 in 10.0 mi NNW 11.5 mph 16.1 mph N/A   Overcast
2:55 PM 60.8 °F - 41.0 °F 48% 29.94 in 10.0 mi NNW 11.5 mph - N/A   Overcast
3:15 PM 59.0 °F - 41.0 °F 51% 29.94 in 10.0 mi NNW 10.4 mph 17.3 mph N/A   Overcast
3:35 PM 59.0 °F - 42.8 °F 55% 29.94 in 10.0 mi WNW 9.2 mph - N/A   Overcast
3:55 PM 57.2 °F - 42.8 °F 59% 29.95 in 10.0 mi NW 8.1 mph - N/A   Overcast
4:15 PM 57.2 °F - 42.8 °F 59% 29.95 in 10.0 mi NW 6.9 mph - N/A   Overcast
4:35 PM 57.2 °F - 44.6 °F 63% 29.97 in 10.0 mi North 12.7 mph 19.6 mph N/A   Overcast
4:55 PM 55.4 °F - 44.6 °F 67% 29.97 in 10.0 mi NNW 10.4 mph 17.3 mph N/A   Overcast
5:15 PM 53.6 °F - 42.8 °F 67% 29.98 in 10.0 mi NW 13.8 mph 19.6 mph N/A   Overcast
5:35 PM 51.8 °F - 44.6 °F 76% 30.00 in 7.0 mi NNW 13.8 mph 26.5 mph N/A   Overcast
5:55 PM 48.2 °F - 42.8 °F 82% 30.00 in 10.0 mi NNW 13.8 mph 19.6 mph N/A   Overcast
6:15 PM 48.2 °F - 42.8 °F 82% 30.01 in 10.0 mi NW 6.9 mph 17.3 mph N/A   Overcast
6:35 PM 48.2 °F - 42.8 °F 82% 30.02 in 10.0 mi NW 5.8 mph - N/A   Overcast
6:55 PM - - - N/A% 30.05 in 10.0 mi NNW 27.6 mph 38.0 mph N/A   Overcast
7:15 PM - - - N/A% 30.07 in 10.0 mi North 19.6 mph 27.6 mph N/A   Mostly Cloudy
7:35 PM 44.6 °F 38.1 °F 33.8 °F 66% 30.08 in 10.0 mi NNW 13.8 mph 26.5 mph N/A   Overcast
7:55 PM - - - N/A% 30.08 in 10.0 mi NNW 16.1 mph 23.0 mph N/A   Overcast
8:15 PM 44.6 °F 38.4 °F 30.2 °F 57% 30.09 in 10.0 mi North 12.7 mph - N/A   Mostly Cloudy
8:35 PM - - - N/A% 30.10 in 10.0 mi NNW 20.7 mph 31.1 mph N/A   Overcast
8:55 PM 42.8 °F 34.3 °F 24.8 °F 49% 30.12 in 10.0 mi NNW 19.6 mph 32.2 mph N/A   Scattered Clouds
9:15 PM 42.8 °F 34.8 °F 24.8 °F 49% 30.12 in 10.0 mi NNW 17.3 mph 24.2 mph N/A   Clear
9:35 PM 41.0 °F 34.3 °F 23.0 °F 49% 30.13 in 10.0 mi NNW 11.5 mph 26.5 mph N/A   Clear
9:55 PM 41.0 °F 33.1 °F 23.0 °F 49% 30.13 in 10.0 mi NNW 15.0 mph 21.9 mph N/A   Clear
10:15 PM 41.0 °F 33.9 °F 23.0 °F 49% 30.13 in 10.0 mi NNW 12.7 mph - N/A   Clear
10:35 PM 39.2 °F 32.5 °F 23.0 °F 52% 30.13 in 10.0 mi NW 10.4 mph 19.6 mph N/A   Clear
10:55 PM 39.2 °F 33.6 °F 23.0 °F 52% 30.13 in 10.0 mi NW 8.1 mph 17.3 mph N/A   Clear
11:15 PM 39.2 °F 31.2 °F 23.0 °F 52% 30.12 in 10.0 mi NW 13.8 mph 21.9 mph N/A   Clear
11:35 PM 39.2 °F 32.0 °F 23.0 °F 52% 30.12 in 10.0 mi NW 11.5 mph 20.7 mph N/A   Partly Cloudy
11:55 PM 39.2 °F 31.2 °F 23.0 °F 52% 30.11 in 10.0 mi NW 13.8 mph 20.7 mph N/A   Scattered Clouds